KLM61B EHAM-EGPF

Flight info

Callsign KLM61B
Flight time N/A
Altitude 34000
Route BERGI L602 SUPUR P1 GODOS DCT ROXAT DCT BAZNA DCT ANMAZ DCT EWOKE DCT AGPED
Aircraft B739/M-SDE2E3FGHIRWXY/LB1

Departure

Time 2026-05-07 10:00
Airport Amsterdam Airport Schiphol (EHAM)

Arrival

Time N/A
Airport Glasgow Airport (EGPF)
Time Latitude Longitude Altitude Speed Heading
2026-05-07 09:04 52.30458 4.76714 -2 ft 0 kts 334°
2026-05-07 09:42 52.30451 4.76719 -2 ft 4 kts 339°
2026-05-07 09:43 52.30427 4.76733 -2 ft 2 kts 334°
2026-05-07 09:43 52.30409 4.76752 -2 ft 4 kts 297°
2026-05-07 09:43 52.30405 4.76791 -2 ft 4 kts 253°
2026-05-07 09:43 52.30410 4.76813 -2 ft 0 kts 247°
2026-05-07 09:47 52.30409 4.76811 -2 ft 1 kts 242°
2026-05-07 09:48 52.30390 4.76770 -2 ft 9 kts 237°
2026-05-07 09:48 52.30340 4.76639 -2 ft 16 kts 238°
2026-05-07 09:48 52.30280 4.76483 -2 ft 16 kts 238°
2026-05-07 09:48 52.30223 4.76334 -2 ft 15 kts 238°
2026-05-07 09:49 52.30168 4.76191 -2 ft 15 kts 237°
2026-05-07 09:49 52.30115 4.76053 -2 ft 14 kts 238°
2026-05-07 09:49 52.30065 4.75922 -2 ft 14 kts 238°
2026-05-07 09:49 52.30009 4.75777 -2 ft 17 kts 238°
2026-05-07 09:50 52.29940 4.75594 -2 ft 21 kts 238°
2026-05-07 09:50 52.29911 4.75518 -2 ft 7 kts 237°
2026-05-07 09:50 52.29887 4.75458 -2 ft 3 kts 237°
2026-05-07 09:50 52.29885 4.75452 -2 ft 1 kts 237°
2026-05-07 09:51 52.29876 4.75430 -2 ft 3 kts 236°
2026-05-07 09:51 52.29854 4.75372 -2 ft 9 kts 238°
2026-05-07 09:51 52.29832 4.75256 -2 ft 13 kts 275°
2026-05-07 09:51 52.29884 4.75117 -2 ft 16 kts 310°
2026-05-07 09:52 52.29965 4.74966 -2 ft 19 kts 311°
2026-05-07 09:52 52.30059 4.74792 -1 ft 20 kts 311°
2026-05-07 09:52 52.30147 4.74631 9 ft 18 kts 311°
2026-05-07 09:52 52.30235 4.74467 9 ft 19 kts 311°
2026-05-07 09:53 52.30316 4.74313 1 ft 16 kts 310°
2026-05-07 09:53 52.30365 4.74218 -2 ft 6 kts 301°
2026-05-07 09:53 52.30366 4.74128 -2 ft 10 kts 250°
2026-05-07 09:53 52.30310 4.74022 -2 ft 13 kts 219°
2026-05-07 09:54 52.30240 4.73939 -2 ft 10 kts 216°
2026-05-07 09:54 52.30207 4.73893 -2 ft 6 kts 230°
2026-05-07 09:54 52.30191 4.73801 -3 ft 9 kts 276°
2026-05-07 09:54 52.30233 4.73741 -4 ft 9 kts
2026-05-07 09:55 52.30242 4.73742 -4 ft 0 kts
2026-05-07 09:57 52.30243 4.73742 -4 ft 0 kts
2026-05-07 09:59 52.30349 4.73752 -5 ft 46 kts
2026-05-07 10:00 52.30893 4.73802 -2 ft 109 kts
2026-05-07 10:00 52.31821 4.73891 -1 ft 156 kts
2026-05-07 10:00 52.32977 4.73970 310 ft 168 kts
2026-05-07 10:00 52.34139 4.73953 957 ft 169 kts 353°
2026-05-07 10:01 52.34904 4.73639 1303 ft 172 kts 342°
2026-05-07 10:01 52.36043 4.72995 1905 ft 178 kts 342°
2026-05-07 10:01 52.37267 4.72302 2330 ft 194 kts 340°
2026-05-07 10:01 52.38580 4.71515 2677 ft 213 kts 343°
2026-05-07 10:02 52.40049 4.70718 2942 ft 230 kts 343°
2026-05-07 10:02 52.41630 4.69883 3285 ft 249 kts 343°
2026-05-07 10:02 52.43321 4.69004 3887 ft 258 kts 342°
2026-05-07 10:02 52.45031 4.68141 4786 ft 256 kts 342°
2026-05-07 10:03 52.46653 4.66892 5487 ft 261 kts 326°
2026-05-07 10:03 52.48144 4.65163 6306 ft 265 kts 324°
2026-05-07 10:03 52.49671 4.63415 6960 ft 270 kts 324°
2026-05-07 10:03 52.51235 4.61657 7671 ft 274 kts 325°
2026-05-07 10:04 52.52818 4.59903 8393 ft 277 kts 326°
2026-05-07 10:04 52.54414 4.58152 9090 ft 281 kts 326°
2026-05-07 10:04 52.56051 4.56367 9802 ft 284 kts 326°
2026-05-07 10:04 52.57652 4.54426 10403 ft 291 kts 319°
2026-05-07 10:05 52.59182 4.52058 10575 ft 312 kts 315°
2026-05-07 10:05 52.60759 4.49427 10740 ft 333 kts 314°
2026-05-07 10:05 52.62414 4.46633 11084 ft 345 kts 314°
2026-05-07 10:05 52.64108 4.43791 11689 ft 349 kts 314°
2026-05-07 10:06 52.65824 4.40939 12374 ft 352 kts 315°
2026-05-07 10:06 52.67571 4.38059 13036 ft 356 kts 315°
2026-05-07 10:06 52.69309 4.35209 13760 ft 358 kts 315°
2026-05-07 10:06 52.71080 4.32313 14437 ft 360 kts 315°
2026-05-07 10:07 52.72873 4.29384 14969 ft 367 kts 315°
2026-05-07 10:07 52.74698 4.26403 15564 ft 371 kts 315°
2026-05-07 10:07 52.76530 4.23409 16288 ft 371 kts 315°
2026-05-07 10:07 52.78377 4.20389 16903 ft 376 kts 315°
2026-05-07 10:08 52.80237 4.17343 17550 ft 378 kts 314°
2026-05-07 10:08 52.82116 4.14262 18119 ft 383 kts 315°
2026-05-07 10:08 52.84020 4.11136 18649 ft 387 kts 314°
2026-05-07 10:08 52.85929 4.07999 19281 ft 388 kts 315°
2026-05-07 10:09 52.87850 4.04838 19771 ft 392 kts 314°
2026-05-07 10:09 52.89800 4.01623 20310 ft 395 kts 315°
2026-05-07 10:09 52.91754 3.98397 20826 ft 399 kts 315°
2026-05-07 10:09 52.93736 3.95122 21292 ft 404 kts 315°
2026-05-07 10:10 52.95728 3.91827 21850 ft 406 kts 315°
2026-05-07 10:10 52.97738 3.88496 22367 ft 409 kts 315°
2026-05-07 10:10 52.99763 3.85134 22828 ft 414 kts 315°
2026-05-07 10:10 53.01810 3.81732 23299 ft 418 kts 315°
2026-05-07 10:11 53.03843 3.78349 23771 ft 421 kts 315°
2026-05-07 10:11 53.05917 3.74892 24205 ft 423 kts 315°
2026-05-07 10:11 53.07996 3.71422 24647 ft 425 kts 316°
2026-05-07 10:11 53.10090 3.67922 25071 ft 427 kts 316°
2026-05-07 10:12 53.12191 3.64404 25474 ft 430 kts 316°
2026-05-07 10:12 53.14305 3.60859 25894 ft 432 kts 316°
2026-05-07 10:12 53.16427 3.57294 26292 ft 434 kts 316°
2026-05-07 10:12 53.18562 3.53702 26652 ft 438 kts 316°
2026-05-07 10:13 53.20712 3.50080 27030 ft 440 kts 316°
2026-05-07 10:13 53.22874 3.46436 27449 ft 442 kts 316°
2026-05-07 10:13 53.24992 3.42706 27840 ft 444 kts 311°
2026-05-07 10:13 53.26795 3.38484 28187 ft 448 kts 304°
2026-05-07 10:14 53.28469 3.34070 28563 ft 451 kts 303°
2026-05-07 10:14 53.30134 3.29620 28909 ft 453 kts 303°
2026-05-07 10:14 53.31814 3.25151 29250 ft 455 kts 304°
2026-05-07 10:14 53.33515 3.20666 29661 ft 456 kts 304°
2026-05-07 10:15 53.35216 3.16209 30180 ft 453 kts 304°
2026-05-07 10:15 53.36911 3.11778 30641 ft 451 kts 304°
2026-05-07 10:15 53.38603 3.07354 31014 ft 451 kts 304°
2026-05-07 10:15 53.40298 3.02913 31313 ft 452 kts 304°
2026-05-07 10:16 53.42049 2.98540 31652 ft 451 kts 309°
2026-05-07 10:16 53.44027 2.94472 32046 ft 449 kts 312°
2026-05-07 10:16 53.46074 2.90523 32428 ft 448 kts 313°
2026-05-07 10:16 53.48135 2.86612 32757 ft 448 kts 313°
2026-05-07 10:17 53.50202 2.82680 33080 ft 448 kts 313°
2026-05-07 10:17 53.52227 2.78791 33429 ft 448 kts 313°
2026-05-07 10:17 53.54261 2.74843 33779 ft 447 kts 313°
2026-05-07 10:17 53.56285 2.70881 34087 ft 447 kts 313°
2026-05-07 10:18 53.58316 2.66887 34091 ft 451 kts 313°
2026-05-07 10:18 53.62387 2.58835 34097 ft 449 kts 312°
2026-05-07 10:19 53.66411 2.50845 34110 ft 446 kts 312°
2026-05-07 10:19 53.70421 2.42865 34110 ft 445 kts 312°
2026-05-07 10:20 53.74421 2.34879 34116 ft 445 kts 312°
2026-05-07 10:20 53.78408 2.26895 34112 ft 444 kts 312°
2026-05-07 10:21 53.82398 2.18878 34115 ft 444 kts 312°
2026-05-07 10:21 53.86373 2.10867 34115 ft 444 kts 312°
2026-05-07 10:22 53.90317 2.02889 34118 ft 444 kts 311°
2026-05-07 10:22 53.94306 1.94796 34117 ft 445 kts 311°
2026-05-07 10:23 53.98247 1.86776 34118 ft 445 kts 310°
2026-05-07 10:23 54.02207 1.78682 34118 ft 445 kts 311°
2026-05-07 10:24 54.06170 1.70565 34118 ft 445 kts 311°
2026-05-07 10:24 54.10121 1.62440 34117 ft 445 kts 311°
2026-05-07 10:25 54.14067 1.54296 34124 ft 445 kts 310°
2026-05-07 10:25 54.17970 1.46182 34108 ft 445 kts 308°
2026-05-07 10:26 54.21036 1.37016 34121 ft 445 kts 297°
2026-05-07 10:26 54.23712 1.27472 34113 ft 445 kts 296°
2026-05-07 10:27 54.26430 1.17990 34109 ft 443 kts 297°
2026-05-07 10:27 54.29186 1.08575 34101 ft 441 kts 298°
2026-05-07 10:28 54.31933 0.99192 34107 ft 439 kts 297°
2026-05-07 10:28 54.34651 0.89842 34107 ft 437 kts 297°
2026-05-07 10:29 54.37351 0.80508 34101 ft 436 kts 297°
2026-05-07 10:29 54.40039 0.71172 34113 ft 436 kts 297°
2026-05-07 10:30 54.44043 0.57177 34105 ft 438 kts 297°
2026-05-07 10:30 54.46726 0.47761 34106 ft 439 kts 296°
2026-05-07 10:31 54.49419 0.38274 34102 ft 441 kts 296°
2026-05-07 10:31 54.52104 0.28785 34099 ft 442 kts 296°
2026-05-07 10:32 54.54780 0.19260 34092 ft 441 kts 295°
2026-05-07 10:32 54.57449 0.09742 34087 ft 440 kts 295°
2026-05-07 10:33 54.60096 0.00275 34083 ft 438 kts 295°
2026-05-07 10:33 54.62724 -0.09205 34081 ft 437 kts 295°
2026-05-07 10:34 54.65341 -0.18623 34089 ft 439 kts 295°
2026-05-07 10:34 54.67972 -0.28168 34091 ft 441 kts 295°
2026-05-07 10:35 54.70608 -0.37790 34091 ft 444 kts 294°
2026-05-07 10:35 54.73254 -0.47455 34083 ft 446 kts 295°
2026-05-07 10:36 54.75898 -0.57177 34092 ft 446 kts 294°
2026-05-07 10:36 54.78516 -0.66824 34060 ft 439 kts 294°
2026-05-07 10:37 54.81094 -0.76345 34063 ft 434 kts 295°
2026-05-07 10:37 54.83645 -0.85861 34081 ft 438 kts 294°